Pagrindinis puslapis
METAR-TAF:

METAR-TAF

Oro uostai :

North Perry Airport

Hollywood, Florida, Jungtinės Amerikos Valstijos

platuma: 25-59-56N, ilguma: 080-14-28W, Aukštis: 2 m

Dabartinis oras

Ataskaita buvo paskelbta 32 minutes, ne 04:53 UTC
Vėjas 13 kt iš Vakarų/Šiaurės Vakarų
Temperatūra 12°C
Drėgmė 67%
Slėgis 1024 hPa
Matomumas: 16.1 km
Giedras dangus

METAR: KHWO 280453Z AUTO 30013KT 10SM CLR 12/06 A3025 RMK AO2 SLP243 T01220056 402060122

Laikas: 00:25 (05:25 UTC)


TAF: trūkstamas

Orai ataskaitas ir orų prognozės (METAR, TAF).

turimą stotys yra geltonos ir raudonos taškus žemėlapyje.

Perkelti pele per norėdami pamatyti stoties vardą.

Tada spustelėkite, norėdami matyti oro stebėjimo ir prognozės.

Norėdami pakeisti žemėlapį: spustelėkite ant žalios mygtukų su juodo kryžiaus žemyn,; žalią mygtuką su brūkšneliu, jei norite nutolinti; arba žalių rodyklių gretimoms žemėlapius.


METAR-TAF: